Kenora, Ontario

8:38 AM CDT on August 28, 2016 (GMT -0500)
Kenora

Weather History for CYQK - February, 2013

Change the Weather History Date:

Friday, February 1, 2013

  Actual Average Record
Temperature  
Mean Temperature -19 °F -  
Max Temperature -10 °F 16 °F 33 °F (2005)
Min Temperature -28 °F -3 °F -28 °F (2013)
Degree Days  
Heating Degree Days 84    
Moisture  
Dew Point -26 °F    
Average Humidity 69    
Maximum Humidity 76    
Minimum Humidity 49    
Precipitation  
Precipitation 0.00 in 0.03 in - ()
Sea Level Pressure  
Sea Level Pressure 30.23 in    
Wind  
Wind Speed 6 mph ()    
Max Wind Speed 9 mph    
Max Gust Speed -    
Visibility 15.0 miles    
Events Snow    
Averages and records for this station are not official NWS values.
T = Trace of Precipitation, MM = Missing Value Source: Averaged Metar Reports

Daily Weather History Graph

Daily Weather History Graph

Search for Another Location

Airport or City:

Trip Planner

Search our weather history database for the weather conditions in past years. The results will help you decide how hot, cold, wet, or windy it might be!

Date:

Astronomy

Feb. 01, 2013 Rise Set
Actual Time 7:49 AM CST 5:13 PM CST
Civil Twilight 7:15 AM CST 5:47 PM CST
Nautical Twilight 6:36 AM CST 6:26 PM CST
Astronomical Twilight 5:59 AM CST 7:03 PM CST
Moon No Moon Rise 9:45 AM CST (2/1)
Length of Visible Light 10h 32m
Length of Day
9h 23m
Waning Gibbous, 70% of the Moon is Illuminated
Feb 1
Waning Gibbous
Feb 3
Last Quarter
Feb 10
New
Feb 17
First Quarter
Feb 25
Full

Hourly Weather History & Observations

Time (CST) Temp. Windchill Dew Point Humidity Pressure Visibility Wind Dir Wind Speed Gust Speed Precip Events Conditions
12:00 AM -21 °F - -27 °F 61% 30.25 in 15 mi NW 8.1 mph - - Snow Snow
12:00 AM -22.0 °F -41.0 °F -27.4 °F 76% 30.25 in 15.0 mi NW 8.1 mph - N/A   Scattered Clouds
1:00 AM -22.0 °F -37.7 °F -27.4 °F 76% 30.25 in 15.0 mi WNW 5.8 mph - N/A   Mostly Cloudy
2:00 AM -22.0 °F -39.4 °F -27.4 °F 76% 30.25 in 15.0 mi WNW 6.9 mph - N/A   Partly Cloudy
3:00 AM -23.8 °F -39.8 °F -29.2 °F 76% 30.25 in 15.0 mi WNW 5.8 mph - N/A   Clear
4:00 AM -23.8 °F -41.6 °F -29.2 °F 76% 30.25 in 15.0 mi West 6.9 mph - N/A   Clear
5:00 AM -25.6 °F -43.8 °F -31.0 °F 76% 30.25 in 15.0 mi West 6.9 mph - N/A   Clear
6:00 AM -26 °F - -31 °F 64% 30.24 in 15 mi West 5.8 mph - - Snow Snow
6:00 AM -25.6 °F -41.9 °F -31.0 °F 76% 30.24 in 15.0 mi West 5.8 mph - N/A   Clear
7:00 AM -27.4 °F -41.9 °F -32.8 °F 75% 30.24 in 15.0 mi WSW 4.6 mph - N/A   Partly Cloudy
8:00 AM -27.4 °F -41.9 °F -32.8 °F 75% 30.24 in 15.0 mi SW 4.6 mph - N/A   Partly Cloudy
9:00 AM -27.4 °F -45.9 °F -32.8 °F 75% 30.25 in 15.0 mi SSW 6.9 mph - N/A   Scattered Clouds
10:00 AM -23.8 °F -41.6 °F -29.2 °F 76% 30.26 in 15.0 mi SW 6.9 mph - N/A   Partly Cloudy
11:00 AM -18.4 °F -35.1 °F -23.8 °F 76% 30.25 in 15.0 mi SW 6.9 mph - N/A   Mostly Cloudy
12:00 PM -16 °F - -24 °F 51% 30.22 in 15 mi SW 8.1 mph - - Snow Snow
12:00 PM -16.6 °F -34.4 °F -23.8 °F 70% 30.22 in 15.0 mi SSW 8.1 mph - N/A   Scattered Clouds
1:00 PM -14.8 °F -30.8 °F -23.8 °F 64% 30.21 in 15.0 mi SW 6.9 mph - N/A   Scattered Clouds
2:00 PM -11.2 °F -24.8 °F -22.0 °F 59% 30.20 in 15.0 mi SW 5.8 mph - N/A   Mostly Cloudy
3:00 PM -11.2 °F -29.0 °F -22.0 °F 59% 30.18 in 15.0 mi SW 9.2 mph - N/A   Mostly Cloudy
4:00 PM -11.2 °F -24.8 °F -20.2 °F 64% 30.18 in 15.0 mi SSW 5.8 mph - N/A   Mostly Cloudy
5:00 PM -11.2 °F -20.6 °F -20.2 °F 64% 30.18 in 15.0 mi SSW 3.5 mph - N/A   Mostly Cloudy
6:00 PM -13 °F - -22 °F 49% 30.19 in 15 mi Calm Calm - - Snow Snow
6:00 PM -13.0 °F - -22.0 °F 64% 30.19 in 15.0 mi South 2.3 mph - N/A   Scattered Clouds
7:00 PM -16.6 °F - -22.0 °F 76% 30.20 in 15.0 mi Calm Calm - N/A   Partly Cloudy
8:00 PM -13.0 °F -27.0 °F -22.0 °F 64% 30.21 in 15.0 mi WSW 5.8 mph - N/A   Partly Cloudy
9:00 PM -13.0 °F -27.0 °F -20.2 °F 70% 30.22 in 15.0 mi West 5.8 mph - N/A   Clear
10:00 PM -13.0 °F -25.1 °F -20.2 °F 70% 30.22 in 15.0 mi West 4.6 mph - N/A   Clear
11:00 PM -13.0 °F -25.1 °F -20.2 °F 70% 30.22 in 15.0 mi WNW 4.6 mph - N/A   Clear